This is the latest recevied weather packets stored in our database for station/object F8KHU-13. If no packets are shown the sender has not sent any weather packets the latest 1 day(s).
| Time | Temp. | Humidity | Pressure | Rain* | Wind** | Luminosity | Snow |
|---|---|---|---|---|---|---|---|
| 1778082034 | 13.33° C | 30% | 1011.4 hPa | 0 mm | - | 0 W/m² | - |
| 1778082014 | 13.33° C | 30% | 1011.4 hPa | 0 mm | - | 0 W/m² | - |
| 1778079335 | 14.44° C | 30% | 1011.4 hPa | 0 mm | - | 0 W/m² | - |
| 1778078466 | 14.44° C | 30% | 1011.4 hPa | 0 mm | - | 0 W/m² | - |
| 1778078435 | 14.44° C | 30% | 1011.4 hPa | 0 mm | - | 0 W/m² | - |
| 1778078395 | 14.44° C | 30% | 1011.4 hPa | 0 mm | - | 0 W/m² | - |
| 1778077535 | 15.56° C | 29% | 1011.4 hPa | 0 mm | - | 0 W/m² | - |
| 1778077495 | 15.56° C | 29% | 1011.3 hPa | 0 mm | - | 0 W/m² | - |
| 1778076595 | 15° C | 30% | 1011.4 hPa | 0 mm | - | 0 W/m² | - |
| 1778075715 | 14.44° C | 30% | 1011.6 hPa | 0 mm | - | 0 W/m² | - |
| 1778075695 | 14.44° C | 30% | 1011.6 hPa | 0 mm | - | 0 W/m² | - |
| 1778074815 | 14.44° C | 30% | 1011.4 hPa | 0 mm | - | 0 W/m² | - |
| 1778074795 | 14.44° C | 30% | 1011.5 hPa | 0 mm | - | 0 W/m² | - |
| 1778071236 | 13.89° C | 30% | 1011.4 hPa | 0 mm | - | 0 W/m² | - |
| 1778070336 | 14.44° C | 30% | 1011.3 hPa | 0 mm | - | 0 W/m² | - |
| 1778070316 | 14.44° C | 30% | 1011.2 hPa | 0 mm | - | 0 W/m² | - |
| 1778070296 | 14.44° C | 30% | 1011.2 hPa | 0 mm | - | 0 W/m² | - |
| 1778069416 | 12.78° C | 32% | 1011.2 hPa | 0 mm | - | 0 W/m² | - |
| 1778069396 | 12.78° C | 32% | 1011.3 hPa | 0 mm | - | 0 W/m² | - |
| 1778068516 | 12.22° C | 32% | 1011.2 hPa | 0 mm | - | 0 W/m² | - |
| 1778068496 | 12.22° C | 32% | 1011.2 hPa | 0 mm | - | 0 W/m² | - |
| 1778067636 | 12.22° C | 32% | 1011 hPa | 0 mm | - | 0 W/m² | - |
| 1778067596 | 12.78° C | 32% | 1011.1 hPa | 0 mm | - | 0 W/m² | - |
| 1778066716 | 13.33° C | 32% | 1011.1 hPa | 0 mm | - | 0 W/m² | - |
| 1778066696 | 13.33° C | 32% | 1011 hPa | 0 mm | - | 0 W/m² | - |
* Rain latest hour (hover to see other rain measurements)
** Current wind speed in m/s (hover to see current wind gust speed)